千帆星座-7 (QIANFAN-7)

导读

QIANFAN-7 是中国自主研发的北斗卫星导航系统中的重要成员,主要用于提供高精度定位、导航和授时服务。该卫星采用先进技术和稳定平台,具备更强的信号覆盖能力和抗干扰性能,广泛应用于交通、农业、通信、应急救援等多个领域。QIANFAN-7 的成功发射和运行,进一步提升了北斗系统的全球服务能力,增强了我国在卫星导航领域的自主可控能力,对推动国家信息化建设和国防安全具有重要意义。

Basic Information
目录编号:
60385
目录名称:
QIANFAN-7
国际标识:
2024-140G
轨道中心:
EARTH
卫星名称:
千帆星座-7 (QIANFAN-7)
卫星全名:
千帆星座-7 (QIANFAN-7)
卫星状态:
在轨 (已飞行766 天)
发射日期:
2024-08-06 UTC
国别 :
中国 (CN)
星等 :
--
This satellite is enrolled in the Space Conjunction Data Service (SCDS) and the current flight risk assessment level is: No High Risk
Orbit Information
数据来源 国际轨道数据 AOE轨道数据
星历时间 2026-09-11T06:42:29+0800
10小时前
查看轨道信息
2026-09-10T21:00:00+0800
20小时前
查看轨道信息
半长轴 7176.925km 7176.924km
偏心率 0.0013381 0.001335
轨道倾角 88.972° 88.970°
近地点辐角 217.098° 218.387°
升交点赤经 261.681° 261.727°
平近点角 142.929° 223.656°
近地点 789.184km 789.205km
远地点 808.392km 808.369km
周期 100.848分钟 100.848分钟
每日圈数 14.278915 14.278918
Detailed Information
运营商:
上海垣信卫星科技有限公司
运营商所在国:
中国
使用方式:
暂无
Satellite Introduction
千帆星座,也被称为“G60星链”计划,是中国版“星链”的重要组成部分,旨在打造一个由1.4万多颗低轨宽频多媒体卫星构成的庞大星座。千帆星座计划由上海垣信卫星科技有限公司负责实施,于2023年启动建设。该项目是我国第二个低轨卫星大星座,旨在通过构建庞大的卫星网络,为全球用户提供高质量的通信和宽带互联网服务。
2D Orbit Map
3D Orbit Map
Orbit Altitude Analysis Chart
Orbit Inclination Analysis Chart
Orbit Comprehensive Analysis Chart
View Comprehensive Chart
Conjunction Data List
Event ID Objects TCA Miss Dist (km) Collision Risk Probability Collision Risk Index (CRI) Action
CDM_260913-193100-031206-038521
2026-09-13T
19:31:27+0000
0.261 km
中距离
5.958531E-4 高风险 0.91
CDM_260913-064003-103106-038523
2026-09-13T
06:40:33+0000
1.021 km
极远距离
1.802239E-5 中风险 0.6
CDM_260913-200300-897006-038521
2026-09-13T
20:03:04+0000
2.929 km
极远距离
1.233302E-6 低风险 0.37
CDM_260911-233006-038506-096025
2026-09-11T
23:30:46+0000
1.870 km
极远距离
8.458848E-7 极低风险 0.34
Miss Distance Evolution Trend with All Objects
Collision Probability Evolution Trend with All Objects